Location: Lecco
(45.8566°N, 9.3977°E)
Time: 08:20:27
(UTC+02:00)

ISS - Pass Details

Date: 17 July 2018
Orbit: 402 x 408 km, 51.6° (Epoch: 16 July)

Event Time Altitude Azimuth Distance (km) Brightness Sun altitude
Exits shadow 01:41:13 39° 325° (NW) 627 -2.6 -22.8°
Maximum altitude 01:41:33 40° 343° (NNW) 609 -2.5 -22.8°
Drops below altitude 10° 01:44:42 10° 56° (NE) 1,470 -0.5 -22.8°
Sets 01:46:52 0° 63° (ENE) 2,333 0.5 -22.8°
